Weather History for McCall, ID

Change the Weather History Date:

Friday, September 12, 2014

  Actual Average Record
Temperature  
Mean Temperature 48 °F 52 °F  
Max Temperature 67 °F 69 °F 87 °F (1990)
Min Temperature 29 °F 35 °F 23 °F (1984)
Degree Days  
Heating Degree Days 17 13  
Month to date heating degree days 132 134  
Since 1 July heating degree days 248 462  
Cooling Degree Days 0 0  
Month to date cooling degree days 0 0  
Year to date cooling degree days 185 25  
Moisture  
Dew Point 23 °F    
Average Humidity 44    
Maximum Humidity 72    
Minimum Humidity 16    
Precipitation  
Precipitation 0.00 in 0.03 in 0.57 in (1969)
Month to date precipitation 0.00 0.33  
Year to date precipitation 16.62 13.37  
Sea Level Pressure  
Sea Level Pressure 30.17 in    
Wind  
Wind Speed 4 mph (ESE)    
Max Wind Speed 14 mph    
Max Gust Speed 19 mph    
Visibility 10 miles    
Events      
T = Trace of Precipitation, MM = Missing Value Source: NWS Daily Summary

Daily Weather History Graph

Daily Weather History Graph

Search for Another Location

Airport:

Trip Planner

Search our weather history database for the weather conditions in past years. The results will help you decide how hot, cold, wet, or windy it might be!

Date:

Astronomy

Sep. 12, 2014 Rise Set
Actual Time 7:19 AM MDT 8:00 PM MDT
Civil Twilight 6:50 AM MDT 8:30 PM MDT
Nautical Twilight 6:14 AM MDT 9:05 PM MDT
Astronomical Twilight 5:38 AM MDT 9:41 PM MDT
Moon 10:12 PM MDT (9/12) 11:39 AM MDT (9/12)
Length of Visible Light 13h 40m
Length of Day
12h 41m
Waning Gibbous, 82% of the Moon is Illuminated
Sep 12
Waning Gibbous
Sep 15
Last Quarter
Sep 24
New
Oct 1
First Quarter
Oct 8
Full

Hourly Weather History & Observations

Time (MDT) Temp. Windchill Dew Point Humidity Pressure Visibility Wind Dir Wind Speed Gust Speed Precip Events Conditions
12:51 AM 37.0 °F - 18.0 °F 46% 30.26 in 10.0 mi Calm Calm - N/A   Clear
1:51 AM 32.0 °F - 25.0 °F 75% 30.27 in 10.0 mi Calm Calm - N/A   Clear
2:51 AM 33.1 °F 30.0 °F 17.1 °F 52% 30.26 in 10.0 mi NE 3.5 mph - N/A   Clear
3:51 AM 30.9 °F - 23.0 °F 72% 30.27 in 10.0 mi Calm Calm - N/A   Clear
4:51 AM 30.0 °F - 21.9 °F 72% 30.27 in 10.0 mi Calm Calm - N/A   Clear
5:51 AM 30.0 °F - 18.0 °F 61% 30.26 in 10.0 mi Calm Calm - N/A   Clear
6:51 AM 30.0 °F - 18.0 °F 61% 30.27 in 10.0 mi Calm Calm - N/A   Clear
7:51 AM 28.9 °F - 19.0 °F 67% 30.28 in 10.0 mi Calm Calm - N/A   Clear
9:51 AM 42.1 °F - 27.0 °F 55% 30.24 in 10.0 mi Calm Calm - N/A   Clear
10:51 AM 48.9 °F - 27.0 °F 43% 30.22 in 10.0 mi Calm Calm - N/A   Clear
11:51 AM 55.9 °F - 26.1 °F 32% 30.20 in 10.0 mi SSE 9.2 mph - N/A   Clear
12:51 PM 59.0 °F - 26.1 °F 28% 30.17 in 10.0 mi ESE 9.2 mph - N/A   Clear
1:51 PM 63.0 °F - 27.0 °F 26% 30.14 in 10.0 mi North - - N/A   Clear
3:51 PM 66.0 °F - 25.0 °F 21% 30.10 in 10.0 mi South 6.9 mph - N/A   Clear
4:51 PM 66.9 °F - 19.0 °F 16% 30.08 in 10.0 mi South 11.5 mph - N/A   Clear
5:51 PM 66.0 °F - 21.0 °F 18% 30.07 in 10.0 mi South 9.2 mph - N/A   Clear
6:51 PM 64.9 °F - 23.0 °F 20% 30.06 in 10.0 mi WNW 5.8 mph - N/A   Clear
7:51 PM 60.1 °F - 21.9 °F 23% 30.07 in 10.0 mi NW 4.6 mph - N/A   Clear
8:51 PM 52.0 °F - 25.0 °F 35% 30.08 in 10.0 mi ENE 3.5 mph - N/A   Clear
9:51 PM 48.9 °F - 25.0 °F 39% 30.08 in 10.0 mi NNW 3.5 mph - N/A   Clear
10:51 PM 50.0 °F - 32.0 °F 50% 30.06 in 10.0 mi North 4.6 mph - N/A   Clear
11:51 PM 46.9 °F - 30.0 °F 52% 30.05 in 10.0 mi Calm Calm - N/A   Clear